Home   Weather   Charlotte Amalie   Past weeks

Flag for US Virgin Islands Past Weather in Charlotte Amalie, US Virgin Islands — Yesterday and Last 2 Weeks

88 °F


Feels Like: 100 °F
Forecast: 81 / 87 °F
Wind: 12 mph from Southeast

Location: Cyril E. King International Airport

Current Time: Oct 25, 2016 at 1:28:57 PM

Latest Report: Oct 25, 2016 at 12:53 PM

Visibility: 10 mi

Pressure: 29.83 "Hg

Humidity: 70%

Dew Point: 77 °F

Location of Charlotte AmalieLocation

Past Weather in Charlotte Amalie — Graph


Charlotte Amalie Temperature Yesterday

Maximum temperature yesterday: 88 °F (at 9:53 AM)
Minimum temperature yesterday: 80 °F (at 12:53 AM)
Average temperature yesterday: 83 °F

High & Low Weather Summary for the Past Weeks

High90 °F (Oct 23, 11:53 AM)100% (Oct 10, 1:55 PM)30.00 "Hg (Oct 10, 1:55 PM)
Low76 °F (Oct 10, 4:16 PM)59% (Oct 15, 3:53 PM)29.78 "Hg (Oct 17, 3:53 PM)
Average83 °F84%29.90 "Hg
* Reported Oct 10 11:53 AM — Oct 25 11:53 AM, Charlotte Amalie, Weather by CustomWeather, © 2016

Note: Actual official high and low records may vary slightly from our data, if they occured in-between our weather recording intervals... More about our weather records


Charlotte Amalie Weather History for the Previous 24 Hours

Scroll right to see more
Time TempWeatherWind HumidityBarometerVisibility
11:53 AM
Tue, Oct 25
88 °FSunny.14 mph73%29.86 "Hg10 mi
10:53 AM87 °FBroken clouds.9 mph72%29.90 "Hg10 mi
9:53 AM87 °FSunny.12 mph75%29.90 "Hg10 mi
8:53 AM86 °FPassing clouds.12 mph77%29.89 "Hg10 mi
7:53 AM84 °FSunny.8 mph83%29.87 "Hg10 mi
6:53 AM81 °FSunny.5 mph88%29.85 "Hg10 mi
5:53 AM80 °FClear.3 mph90%29.85 "Hg10 mi
4:53 AM79 °FClear.5 mph90%29.84 "Hg10 mi
3:53 AM79 °FClear.5 mph94%29.84 "Hg10 mi
2:53 AM79 °FClear.3 mph94%29.85 "Hg10 mi
1:53 AM80 °FClear.5 mph90%29.86 "Hg10 mi
12:53 AM79 °FClear.6 mph90%29.88 "Hg10 mi
11:53 PM
Mon, Oct 24
80 °FClear.7 mph94%29.90 "Hg10 mi
10:53 PM80 °FPassing clouds.3 mph90%29.92 "Hg10 mi
9:53 PM81 °FClear.No wind91%29.93 "Hg10 mi
8:53 PM81 °FClear.No wind91%29.92 "Hg10 mi
7:53 PM82 °FClear.No wind88%29.90 "Hg10 mi
6:53 PM82 °FClear.No wind88%29.89 "Hg10 mi
5:53 PM83 °FClear.No wind82%29.88 "Hg10 mi
4:53 PM85 °FSunny.3 mph77%29.88 "Hg10 mi
3:53 PM85 °FScattered clouds.No wind75%29.88 "Hg10 mi
2:53 PM84 °FLight rain. Broken clouds.10 mph80%29.88 "Hg10 mi
1:53 PM82 °FScattered clouds.10 mph82%29.89 "Hg10 mi
Weather by CustomWeather, © 2016

See weather overviewHow to use our weather pages